Miscellaneous Local Product
Issued by NWS Hastings, NE

Home | Current Version | Previous Version | Graphics & Text | Print | Product List | Glossary On
Versions: 1 2 3 4 5 6 7 8 9 10 11 12 13 14 15 16 17 18 19 20 21 22 23 24 25 26 27 28 29 30 31 32 33 34 35 36 37 38 39 40 41 42 43 44 45 46 47 48 49 50
932
AXUS43 KGID 190602
MISGRI

GID CWA HOURLY WEATHER ROUNDUP
NATIONAL WEATHER SERVICE HASTINGS NE
1200 AM CST FRI JAN 19 2018

NOTE: "FAIR" INDICATES FEW OR NO CLOUDS BELOW 12,000 FEET WITH NO
SIGNIFICANT WEATHER AND/OR OBSTRUCTIONS TO VISIBILITY.

...SOUTH CENTRAL NEBRASKA...

CITY           SKY/WX    TMP DP  RH WIND       PRES   REMARKS
GRAND ISLAND   CLOUDY    35  27  72 SW8       29.84F WCI  29
KEARNEY        CLOUDY    37  25  61 SW9       29.85F WCI  30
HASTINGS       CLOUDY    37  23  56 S7        29.85F WCI  32
ORD            CLOUDY    35  29  78 CALM      29.80F
YORK           CLOUDY    30  27  86 SW8       29.85F WCI  23
AURORA         CLOUDY    34  26  74 SW12      29.83F WCI  25
LEXINGTON      MOCLDY    30  26  86 CALM      29.84F
HOLDREGE       CLOUDY    38  27  66 SW9       29.85F WCI  31
HEBRON         PTCLDY    36  24  62 SW6       29.90S WCI  31

...NEBRASKA PANHANDLE...

CITY           SKY/WX    TMP DP  RH WIND       PRES   REMARKS
CHADRON        CLOUDY    32  28  85 SW7       29.77F WCI  26
ALLIANCE       CLOUDY    39  30  70 S5        29.81F
SCOTTSBLUFF    CLOUDY    36  29  75 N7        29.84S WCI  30
SIDNEY         CLOUDY    32  20  61 W9        29.87F WCI  24

...WESTERN AND NORTH CENTRAL NEBRASKA...

CITY           SKY/WX    TMP DP  RH WIND       PRES   REMARKS
VALENTINE      CLOUDY    38  30  73 SW7       29.73F WCI  33
AINSWORTH      CLOUDY    39  32  75 SW13      29.75F WCI  32
ONEILL         CLOUDY    37  32  82 SW10      29.76F WCI  30
BROKEN BOW     CLOUDY    33  26  75 CALM      29.81F
IMPERIAL       CLOUDY    32  25  75 CALM      29.87F
NORTH PLATTE   CLOUDY    26  23  88 NW6       29.85F WCI  19
MCCOOK         MOCLDY    32  23  69 W6        29.86F WCI  26

...EASTERN NEBRASKA...

CITY           SKY/WX    TMP DP  RH WIND       PRES   REMARKS
NORFOLK        CLOUDY    29  26  89 CALM      29.79F
SO SIOUX CITY  CLOUDY    27  24  89 SE9       29.81F WCI  18
TEKAMAH        CLOUDY    26  21  81 SE6       29.85F WCI  19
COLUMBUS       CLOUDY    29  28  96 SW7       29.84F WCI  22
ALBION         CLOUDY    37  30  76 CALM      29.81F
OMAHA EPPLEY   CLOUDY    27  21  78 SE13      29.87F WCI  16
OFFUTT AFB     CLOUDY    19  16  88 E3        29.87F
MILLARD        CLOUDY    26  22  84 CALM      29.87F
LINCOLN        CLOUDY    30  22  72 S6        29.88F WCI  24
NEBRASKA CITY  CLOUDY    34  26  74 SW14      29.89F WCI  24
BEATRICE       CLOUDY    36  26  67 S12       29.90F WCI  28
FALLS CITY     CLOUDY    36  24  62 S15       29.93F WCI  27

...NORTHERN KANSAS...

CITY           SKY/WX    TMP DP  RH WIND       PRES   REMARKS
GOODLAND       MOCLDY    41  15  35 SW13      29.90S
HILL CITY      CLOUDY    39  14  36 W5        29.90F
NORTON         CLEAR     30  16  55 S10       29.87S WCI  21
PHILLIPSBURG   CLEAR     41  14  33 W6        29.89S
SMITH CENTER     N/A     34  18  51 S6        29.91F WCI  29
BELOIT         CLEAR     36  19  51 CALM      29.93F
HAYS           CLOUDY    36  16  44 SW10      29.92F WCI  28
RUSSELL        CLOUDY    37  20  50 S15       29.91F WCI  28
CONCORDIA      CLOUDY    38  23  55 S18       29.91F WCI  28
SALINA         CLOUDY    37  25  61 S13       29.97F WCI  29
TOPEKA         CLOUDY    38  22  52 S5        30.01F WCI  34



USA.gov is the U.S. government's official web portal to all federal, state and local government web resources and services.